This is the latest recevied weather packets stored in our database for station/object N9DMT-13. If no packets are shown the sender has not sent any weather packets the latest 10 day(s).
| Time | Temp. | Humidity | Pressure | Rain* | Wind** | Luminosity | Snow |
|---|---|---|---|---|---|---|---|
| 1778105859 | 8.33° C | 44% | 983.6 hPa | 0 mm | - | - | - |
| 1778105558 | 8.33° C | 44% | 983.5 hPa | 0 mm | - | - | - |
| 1778105257 | 8.89° C | 46% | 983.4 hPa | 0 mm | - | - | - |
| 1778104957 | 8.89° C | 44% | 983.3 hPa | 0 mm | - | - | - |
| 1778104656 | 8.89° C | 45% | 983.4 hPa | 0 mm | - | - | - |
| 1778104355 | 8.33° C | 44% | 983.3 hPa | 0 mm | - | - | - |
| 1778104055 | 8.89° C | 44% | 983.5 hPa | 0 mm | - | - | - |
| 1778103754 | 8.33° C | 44% | 983.4 hPa | 0 mm | - | - | - |
| 1778103453 | 8.89° C | 46% | 983.2 hPa | 0 mm | - | - | - |
| 1778103152 | 8.89° C | 44% | 983.4 hPa | 0 mm | - | - | - |
| 1778102851 | 8.89° C | 43% | 983.5 hPa | 0 mm | - | - | - |
| 1778102550 | 8.89° C | 44% | 983.3 hPa | 0 mm | - | - | - |
| 1778102248 | 8.89° C | 45% | 983.5 hPa | 0 mm | - | - | - |
| 1778101948 | 8.89° C | 44% | 983.4 hPa | 0 mm | - | - | - |
| 1778101647 | 8.33° C | 44% | 983.5 hPa | 0 mm | - | - | - |
| 1778101346 | 8.33° C | 45% | 983.5 hPa | 0 mm | - | - | - |
| 1778101045 | 8.33° C | 44% | 983.4 hPa | 0 mm | - | - | - |
| 1778100744 | 8.33° C | 46% | 983.4 hPa | 0 mm | - | - | - |
| 1778100443 | 8.33° C | 44% | 983.5 hPa | 0 mm | - | - | - |
| 1778100143 | 8.89° C | 46% | 983.4 hPa | 0 mm | - | - | - |
| 1778099842 | 8.89° C | 44% | 983.5 hPa | 0 mm | - | - | - |
| 1778099541 | 8.89° C | 47% | 983.5 hPa | 0 mm | - | - | - |
| 1778099240 | 8.89° C | 44% | 983.4 hPa | 0 mm | - | - | - |
| 1778098939 | 8.89° C | 44% | 983.5 hPa | 0 mm | - | - | - |
| 1778098639 | 8.89° C | 44% | 983.6 hPa | 0 mm | - | - | - |
* Rain latest hour (hover to see other rain measurements)
** Current wind speed in m/s (hover to see current wind gust speed)